When you browse on this site, cookies collect data to enhance your experience and personalize the content and advertising you see.
Visit our Privacy Policy to learn more. By continuing to use the site, you agree to this use of cookies and data.
  • In Schweiz
  • Länderverzeichnis
  • Für 7 Tage
  • Wassertemperatur
  • Satellitenkarten
  • Wetterkarte
  • Widgets
  • user-avatar
    Anmelden

    Stündliche Wetter Ludwinow

    Heute, 20 Mai, Montag

    Zeit Temperatur Niederschläge Wind Luftdruck Luftfeuchtigkeit
    00:00 +14°C° 0 mm 3 m/S 736 mmHg 93%
    01:00 +15°C° 0 mm 2 m/S 736 mmHg 95%
    02:00 +14°C° 0 mm 3 m/S 735 mmHg 96%
    03:00 +14°C° 0 mm 3 m/S 735 mmHg 97%
    04:00 +14°C° 0 mm 3 m/S 735 mmHg 97%
    05:00 +15°C° 0 mm 4 m/S 734 mmHg 95%
    06:00 +17°C° 0 mm 4 m/S 734 mmHg 93%
    07:00 +17°C° 0 mm 5 m/S 734 mmHg 90%
    08:00 +20°C° 0 mm 5 m/S 734 mmHg 81%
    09:00 +22°C° 0 mm 6 m/S 734 mmHg 71%
    10:00 +24°C° 0 mm 6 m/S 735 mmHg 62%
    11:00 +24°C° 0 mm 6 m/S 734 mmHg 57%
    12:00 +26°C° 0 mm 6 m/S 734 mmHg 52%
    13:00 +27°C° 0 mm 6 m/S 734 mmHg 47%
    14:00 +26°C° 0 mm 5 m/S 734 mmHg 50%
    15:00 +26°C° 0 mm 5 m/S 734 mmHg 53%
    16:00 +25°C° 0 mm 4 m/S 734 mmHg 56%
    17:00 +23°C° 0 mm 4 m/S 734 mmHg 62%
    18:00 +21°C° 0 mm 3 m/S 734 mmHg 68%
    19:00 +20°C° 0 mm 3 m/S 734 mmHg 75%
    20:00 +18°C° 0 mm 3 m/S 734 mmHg 80%
    21:00 +17°C° 0 mm 3 m/S 734 mmHg 85%
    22:00 +16°C° 0 mm 3 m/S 734 mmHg 90%
    23:00 +15°C° 0 mm 2 m/S 734 mmHg 91%

    Morgen, 21 Mai, Dienstag

    Zeit Temperatur Niederschläge Wind Luftdruck Luftfeuchtigkeit
    00:00 +15°C° 0 mm 2 m/S 734 mmHg 92%
    01:00 +14°C° 0 mm 1 m/S 734 mmHg 93%
    02:00 +14°C° 0 mm 1 m/S 734 mmHg 91%
    03:00 +14°C° 0 mm 1 m/S 734 mmHg 89%
    04:00 +15°C° 0 mm 1 m/S 734 mmHg 87%
    05:00 +15°C° 0.3 mm 1 m/S 734 mmHg 87%
    06:00 +15°C° 0.3 mm 2 m/S 734 mmHg 87%
    07:00 +15°C° 0.3 mm 2 m/S 734 mmHg 87%
    08:00 +16°C° 0.2 mm 2 m/S 734 mmHg 85%
    09:00 +16°C° 0.2 mm 3 m/S 734 mmHg 83%
    10:00 +17°C° 0.2 mm 3 m/S 734 mmHg 81%
    11:00 +18°C° 0 mm 3 m/S 734 mmHg 74%
    12:00 +20°C° 0 mm 3 m/S 734 mmHg 67%
    13:00 +21°C° 0 mm 3 m/S 734 mmHg 59%
    14:00 +20°C° 0.3 mm 3 m/S 734 mmHg 65%
    15:00 +19°C° 0.3 mm 2 m/S 734 mmHg 70%
    16:00 +18°C° 0.3 mm 2 m/S 734 mmHg 75%
    17:00 +17°C° 0.2 mm 2 m/S 734 mmHg 79%
    18:00 +17°C° 0.2 mm 3 m/S 734 mmHg 82%
    19:00 +16°C° 0.2 mm 3 m/S 734 mmHg 85%
    20:00 +14°C° 0.3 mm 3 m/S 734 mmHg 87%
    21:00 +14°C° 0.3 mm 4 m/S 734 mmHg 90%
    22:00 +14°C° 0.3 mm 4 m/S 734 mmHg 92%
    23:00 +14°C° 0.1 mm 4 m/S 734 mmHg 92%

    übermorgen, 22 Mai, Mittwoch

    Zeit Temperatur Niederschläge Wind Luftdruck Luftfeuchtigkeit
    00:00 +13°C° 0.1 mm 4 m/S 734 mmHg 93%
    01:00 +13°C° 0.1 mm 3 m/S 734 mmHg 93%
    02:00 +13°C° 0 mm 3 m/S 734 mmHg 94%
    03:00 +12°C° 0 mm 3 m/S 734 mmHg 95%
    04:00 +12°C° 0 mm 3 m/S 734 mmHg 96%
    05:00 +13°C° 0 mm 3 m/S 735 mmHg 92%
    06:00 +14°C° 0 mm 4 m/S 735 mmHg 89%
    07:00 +15°C° 0 mm 4 m/S 735 mmHg 85%
    08:00 +17°C° 0.1 mm 4 m/S 735 mmHg 82%
    09:00 +16°C° 0.1 mm 5 m/S 735 mmHg 78%
    10:00 +17°C° 0.1 mm 5 m/S 735 mmHg 75%
    11:00 +19°C° 0.3 mm 5 m/S 735 mmHg 74%
    12:00 +19°C° 0.3 mm 5 m/S 735 mmHg 72%
    13:00 +19°C° 0.3 mm 5 m/S 735 mmHg 70%
    14:00 +19°C° 0.2 mm 5 m/S 735 mmHg 71%
    15:00 +19°C° 0.2 mm 5 m/S 735 mmHg 72%
    16:00 +19°C° 0.2 mm 4 m/S 735 mmHg 73%
    17:00 +18°C° 0.9 mm 4 m/S 735 mmHg 79%
    18:00 +17°C° 0.9 mm 4 m/S 735 mmHg 86%
    19:00 +15°C° 0.9 mm 4 m/S 736 mmHg 92%
    20:00 +14°C° 0.6 mm 5 m/S 736 mmHg 93%
    21:00 +14°C° 0.6 mm 5 m/S 736 mmHg 94%
    22:00 +14°C° 0.6 mm 5 m/S 736 mmHg 95%
    23:00 +14°C° 0.3 mm 5 m/S 737 mmHg 95%

    23 Mai, Donnerstag

    Zeit Temperatur Niederschläge Wind Luftdruck Luftfeuchtigkeit
    00:00 +14°C° 0.3 mm 4 m/S 737 mmHg 96%
    01:00 +14°C° 0.3 mm 4 m/S 737 mmHg 96%
    02:00 +14°C° 0.3 mm 4 m/S 737 mmHg 96%
    03:00 +14°C° 0.3 mm 5 m/S 737 mmHg 96%
    04:00 +13°C° 0.3 mm 5 m/S 737 mmHg 95%
    05:00 +14°C° 0.2 mm 5 m/S 738 mmHg 95%
    06:00 +14°C° 0.2 mm 5 m/S 738 mmHg 94%
    07:00 +14°C° 0.2 mm 5 m/S 739 mmHg 93%
    08:00 +13°C° 0.7 mm 6 m/S 739 mmHg 93%
    09:00 +12°C° 0.7 mm 7 m/S 740 mmHg 93%
    10:00 +11°C° 0.7 mm 7 m/S 740 mmHg 93%
    11:00 +11°C° 0.5 mm 7 m/S 740 mmHg 93%
    12:00 +10°C° 0.5 mm 7 m/S 741 mmHg 92%
    13:00 +10°C° 0.5 mm 7 m/S 741 mmHg 92%
    14:00 +10°C° 0.2 mm 7 m/S 741 mmHg 89%
    15:00 +10°C° 0.2 mm 7 m/S 741 mmHg 86%
    16:00 +10°C° 0.2 mm 6 m/S 741 mmHg 84%
    17:00 +10°C° 0 mm 5 m/S 742 mmHg 81%
    18:00 +10°C° 0 mm 5 m/S 742 mmHg 79%
    19:00 +11°C° 0 mm 4 m/S 742 mmHg 76%
    20:00 +11°C° 0 mm 4 m/S 742 mmHg 78%
    21:00 +10°C° 0 mm 3 m/S 742 mmHg 79%
    22:00 +10°C° 0 mm 3 m/S 743 mmHg 81%
    23:00 +9°C° 0 mm 3 m/S 742 mmHg 85%

    24 Mai, Freitag

    Zeit Temperatur Niederschläge Wind Luftdruck Luftfeuchtigkeit
    00:00 +9°C° 0 mm 3 m/S 742 mmHg 88%
    01:00 +8°C° 0 mm 3 m/S 742 mmHg 92%
    02:00 +8°C° 0 mm 3 m/S 742 mmHg 92%
    03:00 +7°C° 0 mm 3 m/S 742 mmHg 92%
    04:00 +7°C° 0 mm 2 m/S 742 mmHg 93%
    05:00 +8°C° 0 mm 3 m/S 742 mmHg 86%
    06:00 +9°C° 0 mm 3 m/S 742 mmHg 80%
    07:00 +11°C° 0 mm 3 m/S 742 mmHg 74%
    08:00 +12°C° 0 mm 3 m/S 742 mmHg 68%
    09:00 +14°C° 0 mm 3 m/S 741 mmHg 61%
    10:00 +16°C° 0 mm 3 m/S 741 mmHg 54%
    11:00 +17°C° 0 mm 2 m/S 741 mmHg 52%
    12:00 +18°C° 0 mm 2 m/S 740 mmHg 49%
    13:00 +19°C° 0 mm 2 m/S 740 mmHg 46%
    14:00 +19°C° 0 mm 2 m/S 740 mmHg 46%
    15:00 +19°C° 0 mm 2 m/S 739 mmHg 47%
    16:00 +19°C° 0 mm 2 m/S 739 mmHg 47%
    17:00 +18°C° 0 mm 1 m/S 738 mmHg 53%
    18:00 +16°C° 0 mm 1 m/S 738 mmHg 60%
    19:00 +15°C° 0 mm 1 m/S 738 mmHg 67%
    20:00 +14°C° 0 mm 1 m/S 738 mmHg 69%
    21:00 +13°C° 0 mm 1 m/S 738 mmHg 72%
    22:00 +10°C° 0 mm 0 m/S 738 mmHg 74%
    23:00 +10°C° 0 mm 0 m/S 738 mmHg 75%

    25 Mai, Samstag

    Zeit Temperatur Niederschläge Wind Luftdruck Luftfeuchtigkeit
    00:00 +10°C° 0 mm 0 m/S 738 mmHg 77%
    01:00 +9°C° 0 mm 0 m/S 738 mmHg 78%
    02:00 +9°C° 0 mm 0 m/S 737 mmHg 80%
    03:00 +9°C° 0 mm 0 m/S 737 mmHg 81%
    04:00 +10°C° 0 mm 1 m/S 737 mmHg 83%
    05:00 +11°C° 0 mm 0 m/S 737 mmHg 78%
    06:00 +12°C° 0 mm 0 m/S 738 mmHg 73%
    07:00 +14°C° 0 mm 0 m/S 738 mmHg 68%
    08:00 +16°C° 0 mm 0 m/S 738 mmHg 62%
    09:00 +18°C° 0 mm 0 m/S 738 mmHg 55%
    10:00 +19°C° 0 mm 0 m/S 738 mmHg 49%
    11:00 +20°C° 0 mm 0 m/S 738 mmHg 47%
    12:00 +20°C° 0 mm 0 m/S 737 mmHg 45%
    13:00 +23°C° 0 mm 1 m/S 737 mmHg 43%
    14:00 +23°C° 0 mm 1 m/S 737 mmHg 43%
    15:00 +23°C° 0 mm 1 m/S 737 mmHg 44%
    16:00 +22°C° 0 mm 1 m/S 737 mmHg 45%
    17:00 +21°C° 0 mm 1 m/S 737 mmHg 53%
    18:00 +19°C° 0 mm 1 m/S 737 mmHg 60%
    19:00 +18°C° 0 mm 1 m/S 737 mmHg 68%
    20:00 +16°C° 0 mm 1 m/S 738 mmHg 72%
    21:00 +15°C° 0 mm 1 m/S 738 mmHg 75%
    22:00 +13°C° 0 mm 1 m/S 738 mmHg 79%
    23:00 +13°C° 0 mm 1 m/S 738 mmHg 80%
    Mehr zeigen